Dewpoint
58 52 49 49 52 51 50 52 43 47 44 41 39 42 39 43 44 45 47 47 46 46 47 47 46 48 49 45 44 45 46 44 44 42 41 49 57 58 57 57 54 55 55 56 56 56 57 59 59 59 58 57 57 57 56 56 55 54 54 54 54 54 53 54 53 54 54 54 53 53 53 53 53 53 54 54 53 53 53 53 53 55 55 58 58 59 58 57 56 56 56 56 55 54 53 53 53
50 52 51 53 53 52 50 58 47 41 43 40 42 39 42 44 44 47 46 45 44 44 44 45 45 46 46 46 47 47 47 48 48 49 52 55 57 58 56 54 55 54 54 54 54 56 56 56 59 58 58 58 56 56 56 55 55 54 53 52 52 52 52 52 53 53 53 53 53 53 53 54 54 53 53 54 53 53 54 55 55 55 54 57 58 57 57 55 55 54 54 54 53 53 53 53 53
52 53 51 53 51 50 52 50 42 40 41 38 40 40 43 43 44 44 45 45 45 44 42 43 44 45 45 46 44 45 43 49 50 52 52 54 53 55 54 54 54 53 53 53 53 54 55 55 57 56 55 56 55 54 54 52 52 51 51 51 51 52 51 52 52 52 52 52 53 53 53 54 54 54 53 53 54 53 53 54 56 54 54 56 55 54 54 54 53 52 52 53 52 52 53 52 52
59 58 57 59 53 49 47 50 43 42 39 44 41 46 45 44 42 43 44 44 41 41 42 41 42 44 44 43 45 46 46 47 50 50 52 54 54 54 53 53 53 52 53 53 53 54 54 55 56 56 55 55 54 53 52 51 51 50 50 51 51 51 52 52 52 53 53 52 53 53 53 53 52 54 54 53 52 51 51 53 54 53 54 54 54 53 54 53 52 52 51 51 51 51 51 52 52
55 59 57 53 52 50 47 45 42 41 38 44 39 48 42 43 42 41 42 42 41 40 43 43 43 45 44 45 45 45 46 49 50 50 52 54 53 53 52 52 51 51 51 52 53 53 53 55 54 54 55 54 53 53 51 51 52 52 51 50 50 50 50 51 53 53 54 53 52 51 52 53 53 52 52 53 51 49 52 52 52 53 53 53 53 53 52 51 52 51 51 50 50 50 50 50 52
51 52 54 52 51 55 47 44 41 39 44 45 43 44 43 43 43 42 40 40 41 42 44 42 42 43 44 45 46 45 47 47 50 51 51 53 53 53 51 51 50 50 50 51 51 52 51 55 55 54 54 53 53 52 51 51 51 51 49 49 49 54 53 52 53 53 53 52 52 51 52 51 50 50 49 51 50 50 50 51 51 51 51 51 52 51 51 51 51 50 50 49 49 49 50 51 51
52 50 52 51 53 52 47 44 43 41 32 36 36 41 42 42 41 40 39 39 41 43 46 43 43 43 42 45 45 48 48 49 49 50 51 51 50 53 51 50 50 49 49 50 50 50 51 54 54 53 52 52 52 52 51 51 51 51 51 49 52 53 54 53 53 53 52 51 51 50 49 48 48 48 49 50 49 48 49 49 49 49 50 50 51 52 51 51 50 49 49 49 49 49 50 50 52
57 52 53 49 51 49 45 46 44 45 37 31 33 36 40 42 40 39 39 37 38 40 44 44 43 42 42 45 42 47 48 48 49 49 50 49 49 50 50 50 49 49 49 50 51 50 54 54 53 53 53 52 51 52 52 52 51 51 54 55 54 54 53 52 51 51 50 49 49 49 48 47 46 48 48 48 49 48 47 48 48 49 48 49 49 50 51 50 50 50 49 49 50 50 50 51 51
53 51 55 51 46 48 45 42 46 35 33 34 29 27 33 38 40 40 40 40 41 43 44 43 42 40 41 43 43 46 46 47 48 48 48 48 47 50 50 49 49 49 49 49 49 49 49 54 53 52 51 51 52 51 50 50 51 52 53 53 53 52 51 51 51 49 48 48 47 47 47 47 46 46 47 47 48 47 47 47 47 47 47 47 47 48 49 50 50 50 50 51 51 51 51 51 52
50 50 47 45 46 43 44 45 43 41 34 30 30 31 28 36 41 41 40 40 42 43 44 44 43 40 43 42 44 45 46 47 47 45 45 44 46 49 48 48 47 49 49 49 49 49 49 53 52 51 51 52 50 51 52 51 51 51 50 49 49 49 48 48 48 48 47 46 46 46 47 46 47 47 46 47 46 46 47 46 45 46 46 47 47 48 48 48 49 50 51 51 51 52 51 51 50
48 47 51 45 42 40 41 40 45 35 33 31 31 27 30 33 41 41 41 42 43 43 44 44 43 42 42 42 44 47 47 47 46 44 41 44 44 47 47 47 46 48 48 48 48 48 47 48 52 51 50 50 50 50 50 49 49 48 49 48 48 48 47 47 48 47 47 47 47 47 47 48 47 47 46 47 46 47 47 46 46 47 47 47 47 48 49 49 49 50 49 49 50 50 51 50 48
47 46 47 41 41 41 43 46 46 35 27 27 25 30 31 36 41 40 41 40 40 43 41 43 43 43 41 42 42 45 45 46 44 42 39 40 41 42 45 47 45 44 48 47 47 46 47 46 47 50 49 50 50 50 48 48 47 46 46 47 46 46 47 47 48 48 48 48 48 48 47 47 47 46 47 47 46 46 47 47 47 46 47 47 47 47 49 49 49 48 48 47 47 47 47 47 45
46 46 44 42 41 43 44 43 45 31 32 30 32 32 33 37 39 39 39 40 42 42 41 41 43 41 39 40 43 43 44 43 41 39 37 37 39 41 41 43 46 45 45 48 47 46 47 46 47 47 48 49 49 48 47 46 46 46 45 46 46 46 47 47 47 48 48 48 48 48 46 46 46 46 46 46 45 46 47 47 47 46 47 47 47 47 48 48 47 46 45 44 43 43 43 43 43
44 46 45 42 38 38 38 39 36 36 35 35 30 30 30 34 38 39 38 38 38 37 36 34 42 39 39 41 41 42 43 42 39 36 34 35 37 39 40 40 44 44 45 47 47 46 46 45 46 46 45 45 45 46 46 46 46 45 45 45 45 46 46 45 44 44 44 44 43 44 44 45 45 46 46 46 46 46 45 46 45 46 46 47 47 47 46 46 45 43 43 41 40 40 40 40 40
45 44 41 41 36 36 37 35 34 36 34 27 25 28 26 26 29 35 37 36 33 30 35 38 31 39 37 38 39 41 42 41 38 34 34 34 35 36 37 37 38 42 44 45 45 44 44 45 43 43 43 42 41 43 44 44 45 45 44 45 44 44 43 43 42 41 41 40 39 37 38 39 41 41 42 43 44 43 43 42 44 45 45 44 44 45 45 44 43 42 41 39 39 39 39 38 39
42 40 40 38 34 33 34 35 32 32 24 25 25 26 26 27 28 30 27 27 31 32 35 37 36 32 38 37 40 43 40 39 36 32 33 34 35 36 36 36 35 35 38 41 41 43 43 43 42 41 40 41 42 42 42 43 43 43 41 40 40 40 39 39 38 37 36 35 36 35 32 30 31 33 37 34 39 39 39 38 40 42 43 41 41 40 41 41 41 40 39 39 37 36 35 34 34
41 40 33 34 31 30 30 30 29 28 22 24 24 25 27 27 27 27 28 30 33 35 29 29 32 36 37 39 42 42 38 38 36 31 32 32 34 35 35 35 35 34 34 36 37 37 38 37 37 39 40 40 41 41 40 40 39 39 37 38 36 35 34 33 32 31 30 30 29 30 29 25 26 27 27 28 32 31 36 36 36 37 39 39 38 37 38 39 39 38 37 37 34 32 30 27 29
36 36 34 32 30 27 21 18 17 23 22 24 24 25 26 26 27 27 28 31 32 33 30 31 34 37 39 41 41 39 36 35 34 32 33 34 34 34 35 34 34 33 32 32 32 32 32 32 33 33 36 37 36 35 34 33 33 30 26 26 25 27 28 28 26 26 28 27 26 24 24 21 22 23 26 27 25 26 28 32 33 34 35 35 34 33 34 36 36 35 34 33 30 29 26 20 22
32 33 33 29 28 18 17 14 16 19 22 24 24 23 25 26 27 28 28 29 31 32 32 33 33 36 38 39 38 36 35 34 34 34 35 34 34 35 36 36 34 32 32 31 30 29 30 30 29 30 31 30 29 27 26 31 29 29 29 27 28 29 28 26 25 25 26 27 25 22 21 21 19 19 21 26 27 27 25 27 27 29 30 30 29 28 29 30 30 31 30 28 25 25 20 18 16
27 29 28 28 20 15 16 16 15 18 22 23 22 22 25 25 27 29 28 29 31 33 32 32 33 35 36 37 38 36 35 34 34 36 36 35 34 34 34 33 32 33 32 31 30 28 29 28 27 27 27 26 26 27 27 25 25 23 24 24 24 24 25 25 25 26 26 25 24 20 20 24 24 22 28 28 27 22 24 24 22 22 23 24 24 22 21 23 23 25 25 23 19 19 18 14 14
22 26 25 18 14 17 16 17 17 17 20 22 21 22 22 23 24 26 27 29 30 31 32 33 33 35 36 36 37 37 36 34 34 35 34 34 34 34 32 31 32 32 32 31 30 27 27 26 25 26 25 26 27 26 25 24 25 23 23 22 23 20 23 22 22 25 27 26 25 22 25 25 24 21 24 21 20 20 21 19 19 18 19 20 20 20 17 19 17 19 18 18 14 16 19 16 15
21 19 15 14 13 13 17 17 18 18 20 21 20 21 21 21 23 25 28 28 29 30 32 34 35 35 36 37 36 37 36 35 35 35 35 34 33 31 30 31 31 30 30 30 29 28 28 26 26 27 27 29 28 27 24 25 26 23 22 19 19 20 23 18 19 21 23 25 24 24 23 24 22 22 23 23 21 18 18 16 16 15 17 16 15 15 16 16 14 15 14 14 11 13 15 16 13
21 15 14 14 14 15 17 17 18 19 19 20 20 21 22 23 24 25 28 29 22 22 30 33 36 35 36 37 37 36 37 36 36 36 36 33 31 31 31 29 27 27 30 30 29 27 27 26 27 28 28 29 28 27 26 25 24 22 21 19 20 19 19 20 18 18 20 23 24 24 22 19 19 19 21 21 19 17 16 14 13 14 15 12 12 12 16 13 12 11 12 14 12 12 13 15 14
17 16 14 14 15 16 16 17 18 18 20 19 20 22 21 23 23 24 24 18 20 21 23 28 35 35 35 34 34 34 34 35 34 33 35 34 31 29 26 25 26 28 31 29 29 27 27 25 26 27 29 30 29 26 24 24 23 23 24 22 22 21 20 18 17 18 23 19 22 17 17 18 17 17 19 18 17 18 17 17 15 13 12 11 11 11 14 10 10 10 13 13 6 8 7 13 11
19 20 14 14 15 15 16 17 17 18 18 19 20 20 20 20 19 21 23 19 20 22 23 25 25 29 34 34 33 33 33 32 32 33 32 33 34 31 27 27 27 29 29 27 27 25 26 25 24 26 27 28 28 25 24 24 24 24 22 20 20 21 20 19 19 21 18 16 19 21 20 17 16 17 18 15 16 18 17 17 13 12 13 10 12 9 11 10 9 9 10 10 9 9 7 10 10
20 15 14 15 15 15 16 16 17 17 18 19 19 18 18 17 18 19 22 18 20 20 23 25 26 27 28 30 32 32 32 33 34 32 28 27 27 25 26 25 25 27 27 26 26 26 25 22 24 23 23 24 24 24 25 24 23 23 23 21 20 21 19 20 21 16 15 16 17 20 19 17 16 14 16 14 16 17 17 18 14 13 10 9 10 10 8 8 8 9 10 10 7 8 6 8 8
16 15 15 14 15 15 16 16 16 17 17 17 16 17 18 19 18 17 19 18 19 20 22 24 26 28 29 29 32 32 30 31 31 27 28 28 26 26 26 25 24 27 26 25 26 25 23 20 21 20 21 23 22 21 22 19 21 21 22 20 21 20 20 20 18 16 16 14 15 21 19 18 17 17 15 14 13 15 15 15 12 12 11 9 10 10 9 11 8 10 12 10 10 8 8 6 8
15 15 15 15 15 15 15 15 16 16 15 16 15 14 16 18 18 18 17 17 19 22 22 22 25 29 29 29 29 30 29 29 29 28 29 27 26 27 27 27 26 28 26 24 26 24 20 19 21 19 17 17 19 19 21 18 18 19 21 18 19 19 21 16 16 17 17 15 18 20 17 15 15 17 18 15 15 14 12 12 12 12 10 9 9 11 12 11 10 11 13 13 11 9 7 6 8
14 16 18 15 14 14 15 14 15 16 13 15 14 13 14 16 15 17 17 18 19 23 22 22 26 28 29 29 28 28 28 27 26 26 28 28 28 28 28 27 27 27 25 25 25 22 19 19 18 14 13 17 16 16 16 15 18 17 18 18 18 20 17 17 16 16 16 16 18 19 16 16 14 16 17 17 16 14 14 15 14 13 11 10 11 15 15 13 8 7 9 9 7 8 8 8 9
15 14 19 14 16 13 15 15 14 13 14 14 15 12 10 13 14 16 16 18 18 21 22 23 26 27 29 29 27 27 27 28 25 25 26 27 28 28 28 26 27 25 25 25 22 22 19 19 16 15 15 14 15 14 13 15 17 19 18 16 18 18 14 14 15 15 14 14 16 18 17 14 12 11 15 16 15 13 15 14 15 13 11 13 13 11 7 7 6 8 7 5 5 5 6 7 3
16 19 18 17 18 13 15 13 13 12 15 14 16 11 9 13 14 15 16 18 18 21 22 24 27 28 28 28 27 26 27 27 27 25 26 27 26 26 25 25 25 23 25 23 21 22 17 16 14 12 13 13 14 12 13 14 15 18 17 16 17 18 15 14 13 13 12 12 13 14 15 14 13 13 15 14 13 12 13 13 13 11 10 13 8 9 8 6 7 6 5 6 5 3 5 5 4
18 16 16 16 14 20 15 14 14 10 14 14 18 15 12 10 13 14 15 17 18 20 22 24 26 27 26 25 25 24 26 27 27 26 26 27 26 23 23 23 22 22 22 23 21 21 16 15 16 12 13 13 14 13 12 13 12 14 17 18 15 19 13 14 12 12 10 8 10 14 15 14 13 12 12 13 12 12 10 11 10 12 14 10 9 8 9 7 6 8 7 9 4 5 4 4 2
16 14 14 19 15 16 16 14 16 17 16 14 15 14 12 11 13 14 15 15 17 18 21 23 25 27 27 26 24 24 26 26 25 24 25 27 25 22 21 23 21 21 21 21 20 20 15 14 16 13 12 11 12 11 13 16 11 11 12 13 13 18 13 12 10 11 10 9 8 10 13 13 13 13 12 13 12 13 9 10 10 13 12 8 10 7 6 8 5 10 5 7 8 4 3 1 -1
14 17 10 15 13 9 11 17 16 20 13 14 15 14 12 11 14 14 14 15 15 16 18 20 22 24 26 27 27 27 27 28 24 23 25 25 22 21 20 24 22 20 20 21 20 18 16 15 16 16 15 11 11 12 12 13 11 9 11 15 15 13 11 11 11 10 9 7 7 10 14 12 11 12 13 12 11 14 11 12 13 12 10 10 8 8 6 6 7 6 3 6 5 5 1 1 0
16 15 12 12 15 13 11 13 20 16 22 18 14 15 15 14 13 13 14 15 15 15 16 18 19 20 22 24 26 27 27 28 27 25 23 22 20 21 21 22 21 20 19 19 18 16 16 14 16 17 16 14 13 13 13 13 11 8 9 10 10 9 12 11 11 8 9 7 7 11 13 10 11 13 12 13 13 12 10 11 11 13 9 7 7 6 7 8 9 7 7 5 6 6 4 4 2
20 19 18 18 13 11 14 21 23 21 20 23 19 16 13 13 14 14 14 14 15 15 15 17 17 18 18 20 22 23 24 25 28 29 27 23 21 21 20 20 20 20 18 17 19 16 15 13 12 17 15 13 12 10 14 14 12 10 9 8 8 10 8 11 12 9 9 7 9 12 12 11 11 11 12 11 12 11 9 10 11 14 9 6 7 7 5 4 7 7 6 6 5 5 4 1 3
20 22 22 18 17 14 19 20 23 25 23 17 17 17 15 15 15 14 14 14 14 15 15 15 17 16 17 17 18 20 20 21 26 27 27 24 22 22 21 19 19 19 18 16 16 16 15 13 13 14 15 12 11 11 11 13 13 11 11 8 8 7 6 7 8 8 9 6 11 11 12 9 12 12 11 11 9 10 8 8 10 11 9 7 6 5 6 5 5 4 2 1 4 3 2 -1 3
21 21 20 14 18 13 18 18 21 24 23 14 14 14 16 15 13 12 12 14 14 14 14 14 15 16 16 17 18 19 19 22 22 21 21 21 20 22 21 19 20 17 18 16 16 16 15 13 11 12 14 12 11 9 11 11 13 12 11 11 8 8 8 8 7 5 7 5 12 10 12 8 12 11 9 9 9 10 7 6 9 9 8 6 5 4 5 8 7 4 2 -3 -2 1 -2 -1 2
22 16 13 11 10 19 21 23 20 20 22 15 12 12 11 10 8 7 7 12 15 15 15 15 14 15 15 15 16 18 18 19 19 19 21 19 21 21 19 19 17 17 18 17 16 16 15 15 13 12 14 14 12 10 11 12 11 12 10 11 9 9 7 7 6 8 7 6 9 10 9 8 11 10 9 9 8 8 6 7 7 6 6 6 4 4 3 4 3 4 1 -6 -13 -9 -7 -2 2
16 12 8 5 18 14 -2 23 23 20 19 12 14 13 9 8 8 8 9 8 12 18 18 18 18 15 15 15 16 17 17 19 18 18 18 18 19 19 19 19 18 18 17 17 16 16 15 16 14 13 13 13 13 12 13 12 12 10 13 14 13 10 7 8 6 4 5 3 7 6 8 7 9 9 9 9 9 8 7 8 6 5 4 3 2 1 0 -0 -2 -0 0 -1 -1 -14 -17 -23 -0
18 16 12 3 14 10 14 3 15 20 25 24 20 15 8 6 5 3 8 11 12 17 18 19 18 20 19 19 17 18 16 18 19 17 17 18 18 18 19 19 19 18 18 16 16 15 14 16 16 14 13 13 14 12 12 13 13 12 12 14 12 10 8 7 4 2 2 3 4 5 4 6 7 7 9 8 8 8 8 7 5 2 2 1 -2 -4 -10 -6 -3 -2 -2 -4 -11 -18 -24 -21 -17
7 17 17 13 11 10 8 11 14 4 4 20 19 -6 -16 1 -3 -2 16 15 15 16 19 18 19 18 19 18 18 18 19 20 19 18 18 18 17 18 19 20 19 18 17 17 16 15 15 15 15 15 14 14 14 13 12 13 13 11 10 11 8 5 5 6 5 4 2 0 -0 -1 0 3 5 6 8 9 8 7 8 7 6 3 2 -0 -3 -6 -9 -10 -5 -4 -5 -5 -7 -9 -15 -18 -21
-6 13 18 17 13 12 12 13 14 1 0 20 17 -3 -3 -5 -3 -2 12 15 12 16 19 17 18 18 18 19 18 17 17 18 19 19 19 18 18 18 18 18 19 18 17 17 16 16 15 15 16 15 15 14 14 14 13 14 13 10 8 10 10 8 7 7 7 6 3 0 3 -1 0 1 4 2 4 7 8 7 8 7 6 3 0 -2 -4 -8 -14 -10 -11 -5 -4 -6 -14 -8 -6 -13 -19
2 18 20 18 13 13 14 16 14 5 13 17 19 11 4 2 -4 12 11 11 9 11 15 18 18 17 17 17 18 18 18 17 19 20 19 19 19 18 17 18 18 18 19 18 17 16 16 15 16 16 16 16 16 14 14 14 13 13 12 9 11 10 8 8 7 7 5 5 1 -0 -3 -2 1 0 1 3 6 6 5 4 1 -3 -4 -3 -4 -10 -15 -13 -15 -11 -4 -7 -10 -16 -12 -20 -23
14 17 21 19 19 19 19 16 8 9 9 5 12 17 5 6 -3 9 14 5 -5 -1 3 15 13 15 17 19 20 20 20 20 18 20 20 19 19 19 18 18 18 18 20 19 17 16 16 15 16 16 16 16 17 16 15 14 15 14 13 12 10 12 10 10 10 10 8 6 1 0 -3 -5 -2 -2 -1 -1 3 5 5 -3 -8 -10 -9 -9 -4 -12 -12 -11 -11 -14 -12 -10 -13 -16 -19 -19 -20
24 23 24 24 23 21 21 11 8 9 8 6 7 14 4 -7 -13 -13 8 -1 -6 -11 -8 -6 6 10 16 20 19 20 20 21 21 19 19 21 20 20 20 20 20 19 20 21 19 17 17 16 17 16 16 16 17 16 16 15 15 15 13 12 12 11 11 11 11 9 8 5 2 1 -3 -6 -6 -5 -5 -3 -1 2 2 -4 -12 -12 -12 -13 -6 -12 -15 -14 -14 -16 -17 -15 -15 -17 -19 -19 -18
25 24 20 20 18 14 14 8 10 12 10 9 13 10 1 -8 -11 -17 -12 -1 -2 -1 -4 -3 2 6 13 17 20 23 21 22 23 23 22 21 21 21 20 20 21 21 20 21 21 18 17 18 17 17 16 16 17 17 16 15 15 14 14 13 12 11 11 10 9 9 7 5 3 -0 -1 -4 -6 -7 -7 -6 -4 -4 -2 -2 -11 -12 -12 -8 -7 -11 -14 -14 -14 -16 -18 -19 -18 -20 -21 -21 -16
22 15 5 -1 -6 6 4 7 9 7 -3 5 3 7 9 -7 -14 -20 -8 6 2 4 4 0 1 2 8 9 20 21 20 22 23 23 23 23 22 21 21 21 21 21 21 21 21 21 20 18 18 17 17 17 17 17 17 16 15 15 14 13 12 11 10 9 9 9 8 5 4 2 0 -2 -5 -6 -7 -7 -7 -8 -7 -5 -6 -11 -10 -12 -10 -11 -14 -14 -14 -16 -17 -17 -18 -18 -19 -18 -20
18 10 5 -3 -7 -9 -10 -2 4 -6 -5 1 -1 8 -4 -0 -3 -4 0 -2 -4 4 15 8 9 8 9 10 13 19 25 23 23 23 24 25 24 24 23 22 22 23 22 22 22 22 21 19 18 17 17 17 17 17 17 17 16 15 14 13 13 12 10 9 9 9 9 6 4 3 1 -2 -4 -6 -7 -7 -8 -9 -10 -9 -7 -10 -10 -11 -11 -11 -13 -15 -16 -16 -17 -17 -17 -18 -19 -19 -19
9 2 -8 -8 -9 -8 -5 -12 -7 -9 -3 -5 -3 3 -14 -16 -15 -9 -14 -12 -5 1 5 7 7 8 11 13 16 17 22 22 23 24 24 25 26 26 25 24 24 23 22 22 22 23 22 21 19 18 17 18 18 18 17 17 17 16 15 14 12 12 11 10 8 8 9 9 6 4 2 -1 -2 -5 -7 -7 -7 -9 -10 -10 -7 -7 -8 -10 -11 -13 -13 -14 -15 -16 -16 -16 -17 -18 -19 -18 -18
-2 7 -13 -1 -4 -4 -7 -8 -7 -1 -5 -10 -3 0 2 -10 11 1 -8 -4 -1 0 4 8 10 13 15 16 17 19 21 21 21 24 23 24 25 27 28 27 26 25 24 24 23 23 22 22 21 19 18 18 18 17 17 17 16 17 15 14 13 12 11 10 9 9 8 9 8 6 3 2 -0 -3 -5 -6 -5 -8 -9 -9 -9 -7 -7 -9 -8 -11 -12 -14 -14 -15 -15 -17 -17 -19 -19 -18 -19
-2 -4 -7 -8 -4 -14 -10 2 0 1 -4 -5 2 2 0 -4 -6 -3 -4 -2 -1 -3 3 8 10 12 15 18 19 20 21 22 22 23 24 24 25 26 27 28 28 27 26 25 24 24 24 23 22 21 20 19 19 19 17 16 16 16 16 14 13 13 13 12 10 10 9 9 9 7 5 4 2 -1 -2 -4 -6 -8 -10 -9 -8 -9 -9 -9 -10 -10 -13 -13 -14 -15 -16 -17 -18 -17 -19 -19 -18
-6 -13 -4 -4 -6 -15 -2 -5 -7 -2 -0 1 7 -4 -5 -6 -9 -9 -6 -4 -3 -0 0 2 5 5 12 18 18 11 15 21 23 26 25 26 26 26 27 27 28 28 28 27 25 25 24 23 23 21 21 20 19 19 17 17 16 15 15 15 14 13 12 11 10 9 9 9 9 8 7 5 3 2 0 -2 -6 -8 -10 -10 -9 -8 -10 -9 -11 -10 -8 -12 -14 -13 -15 -16 -16 -17 -16 -18 -18
-8 -5 -10 10 6 6 9 -5 2 1 -2 -3 -9 1 2 -7 -5 -11 -8 -11 -7 -4 -6 -6 -2 1 6 8 8 8 11 15 17 19 23 24 26 26 26 27 27 27 27 27 26 26 25 24 23 22 21 19 19 18 17 17 16 16 15 15 14 13 12 11 11 10 9 9 8 8 8 6 4 4 3 1 -5 -8 -9 -1 -9 -8 -10 -11 -11 -10 -10 -11 -9 -13 -14 -16 -15 -15 -15 -14 -15
-2 -6 13 1 1 2 -5 2 -3 -3 -2 -6 -5 -7 2 5 5 -6 -9 -6 -8 -8 -10 -10 -12 -11 -8 -5 -1 2 3 9 20 20 22 25 26 27 27 26 26 26 26 27 27 27 26 25 24 22 20 19 18 19 17 17 16 18 18 15 14 14 13 12 11 11 10 9 8 8 8 7 5 4 4 -3 -6 -8 -9 -7 -9 -9 -9 -11 -11 -11 -10 -11 -11 -12 -13 -14 -15 -16 -15 -13 -13
13 7 1 5 -6 4 -3 1 6 -4 -6 -1 2 10 -2 -4 -1 -2 -1 -9 -12 -14 -11 -11 -11 -8 -6 -2 3 5 10 12 14 11 13 16 15 15 17 22 25 25 26 27 27 27 26 25 24 22 21 20 18 18 17 16 16 16 17 16 15 14 14 12 11 11 10 10 9 8 8 7 5 4 1 -4 -5 -8 -7 -7 -9 -10 -10 -9 -10 -10 -9 -10 -11 -12 -13 -14 -15 -15 -14 -15 -14
5 3 3 5 9 -2 3 5 1 -6 -4 -5 -4 -3 0 -7 -9 -10 -3 -8 -9 -9 -8 -7 -6 -6 -3 -2 3 7 8 11 12 14 13 14 13 13 14 15 20 24 25 26 27 25 24 25 23 21 20 19 18 18 17 17 16 16 16 15 15 14 14 13 12 11 10 10 10 10 7 7 6 2 -1 -4 -5 -6 -7 -7 -10 -8 -10 -8 -9 -8 -8 -9 -10 -11 -13 -13 -14 -14 -14 -14 -14
3 5 8 6 7 -0 -2 -2 12 7 -3 -2 -4 -2 1 -3 -5 -7 -8 -9 -9 -9 -7 -6 -5 -5 -1 1 3 4 10 9 9 12 11 13 11 13 14 16 18 21 22 20 22 22 21 21 22 21 20 20 19 19 18 18 17 16 15 15 15 14 14 13 12 11 11 10 10 9 8 7 4 -0 -0 -4 -5 -7 -9 -8 -9 -8 -8 -6 -4 -5 -5 -7 -8 -10 -12 -13 -14 -13 -14 -14 -13